Overview Statistics Trail Chart Weather Telemetry Raw packets
 

This is the latest recevied weather packets stored in our database for station/object NR0A-4. If no packets are shown the sender has not sent any weather packets the latest 10 day(s).

<< 12 13 14 15 16 17 18 >>
Time Temp. Humidity Pressure Rain* Wind** Luminosity Snow
1788569404 30.56° C 70% 1011.7 hPa 0 mm - 11 W/m² -
1788569104 30.56° C 70% 1011.7 hPa 0 mm - 14 W/m² -
1788568804 31.11° C 69% 1011.6 hPa 0 mm - 18 W/m² -
1788568505 31.11° C 68% 1011.6 hPa 0 mm - 23 W/m² -
1788568204 31.11° C 68% 1011.4 hPa 0 mm - 30 W/m² -
1788567904 31.11° C 67% 1011.4 hPa 0 mm - 33 W/m² -
1788567604 31.11° C 67% 1011.4 hPa 0 mm - 28 W/m² -
1788567304 31.67° C 67% 1011.4 hPa 0 mm - 26 W/m² -
1788567004 31.67° C 66% 1011.4 hPa 0 mm - 25 W/m² -
1788566704 31.67° C 65% 1011.4 hPa 0 mm - 21 W/m² -
1788566404 31.67° C 66% 1011.4 hPa 0 mm - 19 W/m² -
1788566104 31.67° C 65% 1011.3 hPa 0 mm - 37 W/m² -
1788565805 32.22° C 64% 1011.4 hPa 0 mm - 39 W/m² -
1788565504 32.22° C 64% 1011.4 hPa 0 mm - 40 W/m² -
1788565204 32.22° C 64% 1011.4 hPa 0 mm - 42 W/m² -
1788564904 32.22° C 64% 1011.5 hPa 0 mm - 44 W/m² -
1788564604 32.22° C 65% 1011.6 hPa 0 mm - 46 W/m² -
1788564304 32.22° C 64% 1011.5 hPa 0 mm - 47 W/m² -
1788564004 32.78° C 64% 1011.5 hPa 0 mm - 49 W/m² -
1788563704 32.78° C 64% 1011.7 hPa 0 mm - 51 W/m² -
1788563404 32.78° C 64% 1011.8 hPa 0 mm - 56 W/m² -
1788563104 32.78° C 64% 1011.7 hPa 0 mm - 60 W/m² -
1788562804 32.78° C 64% 1011.7 hPa 0 mm - 295 W/m² -
1788562504 32.78° C 63% 1011.7 hPa 0 mm - 295 W/m² -
1788562204 33.33° C 63% 1011.6 hPa 0 mm - 322 W/m² -

* Rain latest hour (hover to see other rain measurements)
** Current wind speed in m/s (hover to see current wind gust speed)